This demonstration page uses our WeatherBlox Daily Observations layout. Learn more.

Left ArrowRight Arrow

Hourly Observations for August 8, 2021

Temp ( °F °C ) Dew Point ( °F °C ) Humidity (%) Winds ( mph kmh ) Pressure ( in mb ) Visibility ( mi km ) Precip ( " mm )
12:51 am 00:51 Clear 81 27.2 60 15.6 49 49 Calm 29.74 1007 10 16 0.00 0.00
1:51 am 01:51 Clear 80 26.7 60 15.6 51 51 NW 7 11 29.72 1007 10 16 0.00 0.00
2:51 am 02:51 Clear 80 26.7 59 15 49 49 NW 7 11 29.72 1007 10 16 0.00 0.00
3:51 am 03:51 Clear 78 25.6 59 15 52 52 WNW 5 7 29.73 1007 10 16 0.00 0.00
4:51 am 04:51 Clear 76 24.4 59 15 56 56 N 5 7 29.76 1008 10 16 0.00 0.00
5:51 am 05:51 Sunny 78 25.6 59 15 52 52 NW 7 11 29.76 1008 10 16 0.00 0.00
6:51 am 06:51 Sunny 83 28.3 62 16.7 49 49 NW 10 17 29.78 1008 10 16 0.00 0.00
7:51 am 07:51 Sunny 86 30 65 18.3 49 49 NW 15 24 29.80 1009 10 16 0.00 0.00
8:51 am 08:51 Sunny 88 31.1 65 18.3 46 46 WNW 20 31 29.80 1009 10 16 0.00 0.00
9:51 am 09:51 Sunny 91 32.8 65 18.3 42 42 NW 18 30 29.79 1009 10 16 0.00 0.00
10:51 am 10:51 Sunny 93 33.9 63 17.2 37 37 WNW 16 26 29.78 1009 10 16 0.00 0.00
11:51 am 11:51 Sunny 96 35.6 63 17.2 34 34 NW 18 30 29.76 1008 10 16 0.00 0.00
12:51 pm 12:51 Sunny 96 35.6 62 16.7 32 32 WNW 16 26 29.75 1007 10 16 0.00 0.00
1:51 pm 13:51 Sunny 98 36.7 61 16.1 29 29 WNW 12 19 29.72 1007 10 16 0.00 0.00
2:51 pm 14:51 Sunny 101 38.3 58 14.4 24 24 NW 16 26 29.69 1005 10 16 0.00 0.00
3:51 pm 15:51 Sunny 97 36.1 56 13.3 25 25 NNW 8 13 29.68 1005 10 16 0.00 0.00
4:51 pm 16:51 Sunny 95 35 51 10.6 23 23 NNE 14 22 29.68 1005 10 16 0.00 0.00
5:51 pm 17:51 Sunny 93 33.9 50 10 23 23 WNW 6 9 29.68 1005 10 16 0.00 0.00
6:51 pm 18:51 Sunny 87 30.6 57 13.9 36 36 NW 12 19 29.70 1006 10 16 0.00 0.00
7:51 pm 19:51 Clear 87 30.6 56 13.3 35 35 N 10 17 29.71 1006 10 16 0.00 0.00
8:51 pm 20:51 Clear 88 31.1 57 13.9 35 35 NW 10 17 29.73 1007 10 16 0.00 0.00
11:51 pm 23:51 Clear 81 27.2 62 16.7 53 53 ENE 18 30 29.79 1009 10 16 0.00 0.00

Powered by AerisWeather